• Join FlightAware (Why Join?)
  • Login
  • US Flag 
08:17PM EST


 

Airport Tracker/Info


-or-


 

Live Flight TrackerFlight Track Log ✈ N448ND ✈ 08-May-2014 ✈ KPBI - KFPR

Flight Track Log - Related Links

Times and Time Zones

All times are in EDT time to prevent confusion due to time zone crossing. See the N448ND flight status page for this flight to view local times or setup timezone preferences in your user account.

Time Position Orientation Groundspeed Altitude Reporting Facility
EDT Latitude Longitude Course Direction KTS MPH feet Rate Location/Type
07:41PM 26.7353 -80.0683 10° North 89 102 1,800  Level Miami Center
07:42PM 26.7600 -80.0811 335° Northwest 96 110 2,300 585 Climbing Miami Center
07:43PM 26.7847 -80.0978 329° Northwest 102 117 3,000 585 Climbing Miami Center
07:44PM 26.8241 -80.1527 342° North  Level FlightAware Approximate
07:44PM 26.8089 -80.1114 333° Northwest 100 115 3,500  Level Miami Center
07:45PM 26.8508 -80.1626 342° North  Level FlightAware Approximate
07:45PM 26.8358 -80.1258 334° Northwest 102 117 4,000  Level Miami Center
07:46PM 26.8625 -80.1392 336° Northwest 108 124 4,100  Climbing Miami Center
07:47PM 26.8961 -80.1528 340° North 120 138 4,000 -48 Descending Miami Center
07:48PM 26.9278 -80.1672 338° Northwest 117 135 4,000  Level Miami Center
07:49PM 26.9581 -80.1836 334° Northwest 117 135 4,000 49 Level Miami Center
07:50PM 26.9864 -80.1964 338° Northwest 110 127 4,100 49 Climbing Miami Center
07:51PM 27.0172 -80.2106 338° Northwest 114 131 4,100 -49 Level Miami Center
07:52PM 27.0481 -80.2233 340° North 114 131 4,000  Descending Miami Center
07:53PM 27.0786 -80.2367 339° North 113 130 4,100 49 Climbing Miami Center
07:54PM 27.1078 -80.2486 340° North 113 130 4,100 -49 Level Miami Center
07:55PM 27.1375 -80.2650 334° Northwest 113 130 4,000 -49 Descending Miami Center
07:56PM 27.1678 -80.2828 332° Northwest 116 133 4,000  Level Miami Center
07:57PM 27.1986 -80.2981 336° Northwest 116 133 4,000 -195 Level Miami Center
07:58PM 27.2269 -80.3075 343° North 112 129 3,600 -439 Descending Miami Center
07:59PM 27.2581 -80.3189 342° North 112 129 3,100 -293 Descending Miami Center
08:00PM 27.2878 -80.3325 338° Northwest 110 127 3,000 -49 Descending Miami Center
08:01PM 27.3172 -80.3467 337° Northwest 109 125 3,000 49 Level Miami Center
08:02PM 27.3444 -80.3578 340° North 110 127 3,100  Climbing Miami Center
08:03PM 27.3750 -80.3708 339° North 110 127 3,000 -49 Descending Miami Center
08:04PM 27.4028 -80.3892 330° Northwest 111 128 3,000 49 Level Miami Center
08:05PM 27.4211 -80.4214 303° West 113 130 3,100 -98 Climbing Miami Center
08:06PM 27.4389 -80.4494 306° West 113 130 2,800 -390 Descending Miami Center
08:07PM 27.4603 -80.4786 310° West 115 132 2,300 -341 Descending Miami Center
08:08PM 27.4825 -80.5075 311° West 115 132 2,100 -98 Descending Miami Center
08:09PM 27.5028 -80.5342 311° West 115 132 2,100  Level Miami Center
08:10PM 27.5258 -80.5622 313° West 118 136 2,100  Level Miami Center
08:11PM 27.5492 -80.5914 312° West 118 136 2,100  Level Miami Center
08:12PM 27.5706 -80.6222 308° West 118 136 2,100  Level Miami Center
08:13PM 27.5933 -80.6439 320° Northwest 115 132 2,100  Level Miami Center
08:14PM 27.6064 -80.6192 59° Northeast 85 98 2,100  Level Miami Center
08:15PM 27.6169 -80.5931 65° Northeast 86 99 2,100  Level Miami Center
08:16PM 27.6292 -80.5669 62° Northeast 87 100 2,100  Level Miami Center
08:17PM 27.6381 -80.5431 67° East 87 100 2,100 -98 Level Miami Center
08:18PM 27.6294 -80.5203 113° Southeast 85 98 1,900 -98 Descending Miami Center
08:19PM 27.6133 -80.5003 132° Southeast 85 98 1,900  Level Miami Center
08:21PM 27.5967 -80.4828 137° Southeast 85 98 1,900  Level Miami Center
08:22PM 27.5792 -80.4633 135° Southeast 85 98 1,900  Level Miami Center
08:23PM 27.5631 -80.4453 135° Southeast 78 90 1,900 -98 Level Miami Center
08:24PM 27.5503 -80.4311 135° Southeast 71 82 1,700 -341 Descending Miami Center
08:25PM 27.5353 -80.4150 136° Southeast 71 82 1,200 -443 Descending Miami Center
08:26PM 27.5203 -80.3978 134° Southeast 71 82 800 -344 Descending Miami Center
08:27PM 27.5047 -80.3803 135° Southeast 72 83 500 -49 Descending Miami Center
08:28PM 27.4908 -80.3631 132° Southeast 72 83 700 439 Climbing Miami Center
08:29PM 27.4903 -80.3383 91° East 75 86 1,400 689 Climbing Miami Center
08:30PM 27.4875 -80.3150 98° East 74 85 2,100 585 Climbing Miami Center
08:31PM 27.4847 -80.2928 98° East 74 85 2,600 537 Climbing Miami Center
08:32PM 27.4811 -80.2686 100° East 74 85 3,200 590 Climbing Miami Center
08:33PM 27.4775 -80.2444 100° East 75 86 3,800 443 Climbing Miami Center
08:34PM 27.4744 -80.2219 99° East 75 86 4,100 98 Climbing Miami Center
08:35PM 27.4733 -80.1953 93° East 80 92 4,000 -49 Descending Miami Center
08:36PM 27.4694 -80.1694 100° East 82 94 4,000 49 Level Miami Center
08:37PM 27.4664 -80.1442 98° East 82 94 4,100  Climbing Miami Center
08:38PM 27.4667 -80.1169 89° East 82 94 4,000  Descending Miami Center
08:39PM 27.4497 -80.1331 220° Southwest 110 127 4,100  Climbing Miami Center
08:40PM 27.4714 -80.1619 310° West 114 131 4,000 -49 Descending Miami Center
08:41PM 27.4928 -80.1572 11° North 101 116 4,000  Level Miami Center
08:42PM 27.4786 -80.1350 126° Southeast 83 96 4,000  Level Miami Center
08:43PM 27.4633 -80.1142 130° Southeast 83 96 4,000  Level Miami Center
08:44PM 27.4447 -80.1181 191° South 102 117 4,000  Level Miami Center
08:45PM 27.4650 -80.1486 307° West 115 132 4,000 49 Level Miami Center
08:46PM 27.4944 -80.1628 337° Northwest 115 132 4,100  Climbing Miami Center
08:47PM 27.5225 -80.1725 343° North 113 130 4,000 -49 Descending Miami Center
08:48PM 27.5539 -80.1825 344° North 113 130 4,000  Level Miami Center
08:49PM 27.5842 -80.1911 346° North 110 127 4,000  Level Miami Center
08:50PM 27.6122 -80.2011 342° North 110 127 4,000  Level Miami Center
08:51PM 27.6425 -80.2111 344° North 109 125 4,000  Level Miami Center
08:52PM 27.6736 -80.2189 348° North 109 125 4,000  Level Miami Center
08:53PM 27.7014 -80.2303 340° North 109 125 4,000  Level Miami Center
08:54PM 27.7044 -80.2669 275° West 112 129 4,000 49 Level Miami Center
08:55PM 27.7014 -80.3033 265° West 112 129 4,100  Climbing Miami Center
08:56PM 27.6958 -80.3403 260° West 112 129 4,000 -49 Descending Miami Center
08:57PM 27.6911 -80.3742 261° West 113 130 4,000  Level Miami Center
08:58PM 27.6881 -80.4111 265° West 113 130 4,000  Level Miami Center
08:59PM 27.6836 -80.4481 262° West 113 130 4,000  Level Miami Center
09:00PM 27.6794 -80.4814 262° West 113 130 4,000  Level Miami Center
09:01PM 27.6744 -80.5164 261° West 111 128 4,000 49 Level Miami Center
09:02PM 27.6800 -80.5497 281° West 112 129 4,100  Climbing Miami Center
09:03PM 27.6986 -80.5350 35° Northeast 101 116 4,000 -49 Descending Miami Center
09:04PM 27.6872 -80.5111 118° Southeast 83 96 4,000  Level Miami Center
09:05PM 27.6778 -80.4861 113° Southeast 83 96 4,000 49 Level Miami Center
09:06PM 27.6611 -80.4797 161° South 93 107 4,100  Climbing Miami Center
09:07PM 27.6694 -80.5122 286° West 116 133 4,000 -49 Descending Miami Center
09:08PM 27.6833 -80.5447 296° West 115 132 4,000  Level Miami Center
09:10PM 27.6978 -80.5336 34° Northeast 88 101 4,000  Level Miami Center
09:11PM 27.6864 -80.5106 119° Southeast 79 91 4,000  Level Miami Center
09:12PM 27.6783 -80.4856 110° East 79 91 4,000 -98 Level Miami Center
09:13PM 27.6597 -80.4758 155° Southeast 90 104 3,800 -390 Descending Miami Center
09:14PM 27.6369 -80.4642 156° South 89 102 3,200 -393 Descending Miami Center
09:15PM 27.6147 -80.4494 150° Southeast 89 102 3,000 -295 Descending Miami Center
09:16PM 27.5956 -80.4364 149° Southeast 86 99 2,600 -393 Descending Miami Center